TimeEST,TemperatureF,Dew PointF,Humidity,Sea Level PressureIn,VisibilityMPH,Wind Direction,Wind SpeedMPH,Gust SpeedMPH,PrecipitationIn,Events,Conditions,WindDirDegrees,DateUTC
12:54 AM,30.9,21.0,67,30.00,10.0,SSW,3.5,-,N/A,,Clear,210,2013-02-15 05:54:00
1:54 AM,30.0,21.0,69,30.00,10.0,SSW,3.5,-,N/A,,Clear,210,2013-02-15 06:54:00
2:54 AM,28.9,21.0,72,30.00,10.0,Calm,Calm,-,N/A,,Clear,0,2013-02-15 07:54:00
3:54 AM,30.9,23.0,72,29.99,10.0,South,4.6,-,N/A,,Clear,190,2013-02-15 08:54:00
4:54 AM,28.0,21.9,78,30.00,10.0,SSW,3.5,-,N/A,,Mostly Cloudy,210,2013-02-15 09:54:00
5:54 AM,32.0,26.1,79,29.99,10.0,SSW,5.8,-,N/A,,Overcast,200,2013-02-15 10:54:00
6:54 AM,32.0,27.0,82,30.00,7.0,SSW,8.1,-,N/A,,Mostly Cloudy,200,2013-02-15 11:54:00
7:54 AM,32.0,28.0,85,29.99,5.0,SSW,5.8,-,N/A,,Partly Cloudy,200,2013-02-15 12:54:00
8:54 AM,37.0,28.9,73,30.00,7.0,SSW,8.1,-,N/A,,Clear,200,2013-02-15 13:54:00
9:54 AM,42.1,28.0,58,30.00,10.0,SSW,11.5,-,N/A,,Clear,210,2013-02-15 14:54:00
10:54 AM,44.1,28.9,55,29.99,10.0,SSW,9.2,-,N/A,,Clear,200,2013-02-15 15:54:00
11:54 AM,46.0,28.9,51,29.96,10.0,SW,11.5,17.3,N/A,,Clear,220,2013-02-15 16:54:00
12:54 PM,50.0,28.9,44,29.93,10.0,SSW,13.8,17.3,N/A,,Clear,210,2013-02-15 17:54:00
1:54 PM,48.9,28.9,46,29.92,10.0,SSW,11.5,21.9,N/A,,Clear,210,2013-02-15 18:54:00
2:54 PM,51.1,30.0,44,29.91,10.0,SSW,13.8,20.7,N/A,,Clear,210,2013-02-15 19:54:00
3:54 PM,50.0,28.9,44,29.90,10.0,SW,13.8,21.9,N/A,,Clear,220,2013-02-15 20:54:00
4:54 PM,50.0,28.9,44,29.91,10.0,SSW,9.2,-,N/A,,Clear,210,2013-02-15 21:54:00
5:54 PM,48.0,30.0,50,29.91,10.0,South,4.6,-,N/A,,Clear,190,2013-02-15 22:54:00
6:54 PM,45.0,33.1,63,29.93,10.0,Variable,5.8,-,N/A,,Clear,0,2013-02-15 23:54:00
7:54 PM,41.0,32.0,70,29.94,10.0,SSW,4.6,-,N/A,,Clear,210,2013-02-16 00:54:00
8:54 PM,39.9,30.9,70,29.96,10.0,SSW,3.5,-,N/A,,Clear,210,2013-02-16 01:54:00
9:54 PM,36.0,30.0,79,29.96,10.0,Calm,Calm,-,N/A,,Clear,0,2013-02-16 02:54:00
10:54 PM,35.1,30.0,82,29.96,9.0,Calm,Calm,-,N/A,,Clear,0,2013-02-16 03:54:00
11:54 PM,33.1,27.0,78,29.95,10.0,Calm,Calm,-,N/A,,Clear,0,2013-02-16 04:54:00